Tiempo cada hora Barretos

Hoy, 28 Febrero, Domingo

Tiempo Temperatura Precipitaciones Viento Presión Humedad
00:00 +20°C° 0.2 mm 2 mps 712 mmHg 95%
01:00 +20°C° 0.2 mm 2 mps 712 mmHg 95%
02:00 +20°C° 0.2 mm 2 mps 711 mmHg 95%
03:00 +21°C° 0 mm 1 mps 711 mmHg 95%
04:00 +21°C° 0.2 mm 1 mps 712 mmHg 96%
05:00 +20°C° 0.2 mm 2 mps 712 mmHg 96%
06:00 +20°C° 0.2 mm 2 mps 712 mmHg 96%
07:00 +20°C° 0.1 mm 2 mps 713 mmHg 95%
08:00 +21°C° 0.1 mm 2 mps 713 mmHg 94%
09:00 +21°C° 0.1 mm 2 mps 714 mmHg 93%
10:00 +21°C° 0 mm 2 mps 714 mmHg 90%
11:00 +23°C° 0 mm 2 mps 714 mmHg 87%
12:00 +23°C° 0 mm 2 mps 713 mmHg 84%
13:00 +25°C° 0.2 mm 3 mps 713 mmHg 80%
14:00 +26°C° 0.2 mm 4 mps 712 mmHg 75%
15:00 +27°C° 0.2 mm 4 mps 712 mmHg 71%
16:00 +26°C° 0 mm 3 mps 712 mmHg 75%
17:00 +25°C° 0 mm 3 mps 711 mmHg 79%
18:00 +24°C° 0 mm 2 mps 711 mmHg 83%
19:00 +23°C° 0 mm 2 mps 711 mmHg 82%
20:00 +23°C° 0 mm 1 mps 712 mmHg 81%
21:00 +22°C° 0 mm 1 mps 712 mmHg 80%
22:00 +22°C° 0 mm 1 mps 712 mmHg 80%
23:00 +22°C° 0 mm 1 mps 712 mmHg 79%

Mañana, 1 Marzo, Lunes

Tiempo Temperatura Precipitaciones Viento Presión Humedad
00:00 +23°C° 0 mm 2 mps 712 mmHg 79%
01:00 +21°C° 0 mm 2 mps 712 mmHg 83%
02:00 +21°C° 0 mm 2 mps 711 mmHg 87%
03:00 +20°C° 0 mm 2 mps 711 mmHg 91%
04:00 +20°C° 0.3 mm 2 mps 711 mmHg 91%
05:00 +20°C° 0.3 mm 2 mps 711 mmHg 92%
06:00 +20°C° 0.3 mm 2 mps 711 mmHg 93%
07:00 +21°C° 0.3 mm 2 mps 712 mmHg 90%
08:00 +22°C° 0.3 mm 3 mps 713 mmHg 88%
09:00 +24°C° 0.3 mm 3 mps 713 mmHg 85%
10:00 +26°C° 0.2 mm 4 mps 713 mmHg 80%
11:00 +27°C° 0.2 mm 4 mps 713 mmHg 74%
12:00 +29°C° 0.2 mm 4 mps 713 mmHg 68%
13:00 +29°C° 0.3 mm 4 mps 712 mmHg 68%
14:00 +29°C° 0.3 mm 3 mps 712 mmHg 68%
15:00 +29°C° 0.3 mm 3 mps 711 mmHg 68%
16:00 +28°C° 0.2 mm 2 mps 711 mmHg 72%
17:00 +28°C° 0.2 mm 2 mps 711 mmHg 76%
18:00 +27°C° 0.2 mm 2 mps 711 mmHg 79%
19:00 +26°C° 0 mm 2 mps 711 mmHg 81%
20:00 +25°C° 0 mm 2 mps 711 mmHg 83%
21:00 +24°C° 0 mm 2 mps 712 mmHg 85%
22:00 +24°C° 0.3 mm 2 mps 712 mmHg 87%
23:00 +23°C° 0.3 mm 2 mps 712 mmHg 89%

Pasado mañana, 2 Marzo, Martes

Tiempo Temperatura Precipitaciones Viento Presión Humedad
00:00 +23°C° 0.3 mm 2 mps 712 mmHg 91%
01:00 +23°C° 0 mm 2 mps 712 mmHg 91%
02:00 +21°C° 0 mm 2 mps 712 mmHg 92%
03:00 +21°C° 0 mm 2 mps 711 mmHg 92%
04:00 +21°C° 0 mm 2 mps 712 mmHg 93%
05:00 +20°C° 0 mm 2 mps 712 mmHg 94%
06:00 +20°C° 0 mm 2 mps 712 mmHg 94%
07:00 +21°C° 0 mm 2 mps 713 mmHg 89%
08:00 +24°C° 0 mm 3 mps 713 mmHg 84%
09:00 +25°C° 0 mm 3 mps 714 mmHg 78%
10:00 +27°C° 0.1 mm 4 mps 714 mmHg 73%
11:00 +28°C° 0.1 mm 4 mps 714 mmHg 69%
12:00 +30°C° 0.1 mm 4 mps 714 mmHg 64%
13:00 +30°C° 0.7 mm 4 mps 713 mmHg 65%
14:00 +30°C° 0.7 mm 3 mps 713 mmHg 67%
15:00 +30°C° 0.7 mm 3 mps 712 mmHg 68%
16:00 +29°C° 0.6 mm 2 mps 712 mmHg 72%
17:00 +28°C° 0.6 mm 2 mps 712 mmHg 76%
18:00 +27°C° 0.6 mm 2 mps 712 mmHg 80%
19:00 +26°C° 0.1 mm 2 mps 712 mmHg 82%
20:00 +25°C° 0.1 mm 2 mps 713 mmHg 84%
21:00 +24°C° 0.1 mm 2 mps 713 mmHg 86%
22:00 +23°C° 0 mm 2 mps 713 mmHg 87%
23:00 +23°C° 0 mm 2 mps 714 mmHg 88%

3 Marzo, Miércoles

Tiempo Temperatura Precipitaciones Viento Presión Humedad
00:00 +23°C° 0 mm 2 mps 714 mmHg 89%
01:00 +21°C° 0 mm 2 mps 714 mmHg 90%
02:00 +21°C° 0 mm 2 mps 713 mmHg 90%
03:00 +21°C° 0 mm 2 mps 713 mmHg 91%
04:00 +20°C° 0 mm 2 mps 713 mmHg 91%
05:00 +20°C° 0 mm 2 mps 714 mmHg 91%
06:00 +20°C° 0 mm 2 mps 714 mmHg 91%
07:00 +21°C° 0 mm 2 mps 715 mmHg 86%
08:00 +24°C° 0 mm 3 mps 715 mmHg 82%
09:00 +25°C° 0 mm 3 mps 716 mmHg 77%
10:00 +26°C° 0 mm 3 mps 716 mmHg 72%
11:00 +28°C° 0 mm 4 mps 716 mmHg 67%
12:00 +29°C° 0 mm 4 mps 716 mmHg 62%
13:00 +29°C° 0.1 mm 4 mps 715 mmHg 61%
14:00 +30°C° 0.1 mm 3 mps 715 mmHg 60%
15:00 +30°C° 0.1 mm 3 mps 714 mmHg 59%
16:00 +29°C° 0.1 mm 2 mps 714 mmHg 64%
17:00 +28°C° 0.1 mm 2 mps 713 mmHg 70%
18:00 +27°C° 0.1 mm 1 mps 713 mmHg 75%
19:00 +26°C° 0.2 mm 1 mps 713 mmHg 77%
20:00 +25°C° 0.2 mm 1 mps 714 mmHg 80%
21:00 +21°C° 0.2 mm 0 mps 714 mmHg 83%
22:00 +23°C° 0 mm 1 mps 714 mmHg 84%
23:00 +23°C° 0 mm 1 mps 714 mmHg 84%

4 Marzo, Jueves

Tiempo Temperatura Precipitaciones Viento Presión Humedad
00:00 +23°C° 0 mm 1 mps 714 mmHg 85%
01:00 +23°C° 0.3 mm 1 mps 714 mmHg 87%
02:00 +22°C° 0.3 mm 1 mps 714 mmHg 89%
03:00 +22°C° 0.3 mm 1 mps 714 mmHg 91%
04:00 +22°C° 0.2 mm 1 mps 714 mmHg 91%
05:00 +22°C° 0.2 mm 1 mps 714 mmHg 91%
06:00 +20°C° 0.2 mm 0 mps 714 mmHg 91%
07:00 +22°C° 0.2 mm 1 mps 714 mmHg 91%
08:00 +23°C° 0.2 mm 1 mps 715 mmHg 92%
09:00 +23°C° 0.2 mm 1 mps 715 mmHg 92%
10:00 +23°C° 0.4 mm 1 mps 715 mmHg 90%
11:00 +24°C° 0.4 mm 1 mps 715 mmHg 89%
12:00 +24°C° 0.4 mm 2 mps 715 mmHg 88%
13:00 +25°C° 0.9 mm 2 mps 714 mmHg 87%
14:00 +25°C° 0.9 mm 2 mps 714 mmHg 86%
15:00 +25°C° 0.9 mm 2 mps 714 mmHg 84%
16:00 +25°C° 0.4 mm 1 mps 713 mmHg 87%
17:00 +24°C° 0.4 mm 1 mps 713 mmHg 89%
18:00 +23°C° 0.4 mm 1 mps 712 mmHg 92%
19:00 +23°C° 0 mm 1 mps 713 mmHg 92%
20:00 +22°C° 0 mm 1 mps 713 mmHg 92%
21:00 +22°C° 0 mm 1 mps 713 mmHg 92%
22:00 +22°C° 0 mm 1 mps 713 mmHg 92%
23:00 +21°C° 0 mm 1 mps 713 mmHg 93%

5 Marzo, Viernes

Tiempo Temperatura Precipitaciones Viento Presión Humedad
00:00 +21°C° 0 mm 1 mps 713 mmHg 94%
01:00 +21°C° 0 mm 1 mps 712 mmHg 94%
02:00 +21°C° 0 mm 1 mps 712 mmHg 94%
03:00 +21°C° 0 mm 1 mps 712 mmHg 94%
04:00 +21°C° 0.2 mm 1 mps 712 mmHg 94%
05:00 +21°C° 0.2 mm 1 mps 712 mmHg 94%
06:00 +21°C° 0.2 mm 1 mps 712 mmHg 94%
07:00 +22°C° 0 mm 1 mps 712 mmHg 91%
08:00 +23°C° 0 mm 2 mps 713 mmHg 89%
09:00 +24°C° 0 mm 2 mps 713 mmHg 86%
10:00 +26°C° 0.4 mm 3 mps 713 mmHg 81%
11:00 +27°C° 0.4 mm 3 mps 713 mmHg 77%
12:00 +28°C° 0.4 mm 4 mps 713 mmHg 73%
13:00 +27°C° 1.1 mm 4 mps 712 mmHg 78%
14:00 +26°C° 1.1 mm 4 mps 711 mmHg 83%
15:00 +25°C° 1.1 mm 3 mps 711 mmHg 88%
16:00 +25°C° 0.6 mm 3 mps 710 mmHg 88%
17:00 +25°C° 0.6 mm 2 mps 710 mmHg 88%
18:00 +25°C° 0.6 mm 2 mps 710 mmHg 87%
19:00 +24°C° 0.1 mm 2 mps 710 mmHg 88%
20:00 +23°C° 0.1 mm 1 mps 711 mmHg 89%
21:00 +22°C° 0.1 mm 1 mps 711 mmHg 90%
22:00 +22°C° 0.2 mm 1 mps 711 mmHg 91%
23:00 +22°C° 0.2 mm 1 mps 711 mmHg 91%
Mostrar más

Necesitamos Su Consentimiento

Meteoprog y nuestros Proveedores de Servicios pueden almacenar y acceder a sus datos personales como cookies, identificadores de dispositivo u otras tecnologías similares de su dispositivo y procesar dichos datos para personalizar contenido y anuncios, además de ofrecer funciones de redes sociales y analizar el tráfico.

  • Almacenar y/o acceder a información en su dispositivo

    Se puede almacenar o acceder a cookies, identificadores de dispositivo u otra información de su dispositivo para los fines anteriormente indicados.

  • Anuncios y contenido personalizados, medición de anuncios y contenido, percepciones del público, y desarrollo de productos

    Los anuncios y el contenido pueden personalizarse en base a su perfil. Se pueden añadir más datos para personalizar mejor los anuncios y contenidos. Se puede medir el rendimiento de los anuncios y contenidos. Se puede obtener la percepción sobre el público que ha visto los anuncios y contenidos. Dichos datos pueden usarse para desarrollar o mejorar la experiencia del usuario, sistemas y software.

Al hacer clic en ‘Estoy De Acuerdo’ usted permitirá el uso de las cookies, identificadores de dispositivo, balizas web u otras tecnologías similares indicadas. Su configuración puede cambiarse desde el navegador de su dispositivo.

Para ciertos fines, los intereses legítimos pueden ser considerados por encima del consentimiento. Puede leer más sobre ello en nuestra Política de Privacidad y Cookies.